sat.trackr.live / text

‹ back to catalog

GSAT0101 (GALILEO-PFM)

NORAD 37846 · 2011-060A

PAYLOAD ACTIVE UNKNOWN

§ Identity

Operator
Country
ESA
Launch date
2011-10-21
Launch site
FRGUI
Launch vehicle
Mass (kg)
RCS (m²)
12.62

Purposes: earth_obs, nav

External: N2YO · Heavens-Above · Gunter

§ Orbital elements

Epoch: 2026-09-14T14:18:09.152064Z

Period
844.70 min
Inclination
56.9580°
Eccentricity
0.0000188
Mean motion
1.70475723 rev/d
Perigee alt
23,221.4 km
Apogee alt
23,222.5 km
Semi-major
29,600.1 km
B*
0.0000e+0
RAAN
339.3369°
Arg perigee
9.1365°
Mean anomaly
350.9158°
Rev number
9,264

§ Raw data

GSAT0101 (GALILEO-PFM)1 37846U 11060A   26257.59593926 -.00000103  00000+0  00000+0 0  99992 37846  56.9580 339.3369 0000188   9.1365 350.9158  1.70475723 92648

JSON: /api/v1/satellites/37846 · /tle

For live sub-satellite position, see the globe view (requires WebGL).

§ Visibility from observer

Set your observer location to see the next 7 days of passes ≥ 10°. The values pass through the URL so the page stays shareable.

No JS? Fill the form by hand. The geolocation button needs JavaScript.